Location: *
(34.0486°S, 61.7880°E)
Time: 15:10:44
(UTC+00:00)

Cosmos 1707 - Pass Details

Date: 01 April 2020
Orbit: 516 x 530 km, 82.5° (Epoch: 26 May)

Event Time Altitude Azimuth Distance (km) Brightness Sun altitude
Rises 14:18:34 0° 2° (N) 2,662 6.3 -7.3°
Reaches altitude 10° 14:20:42 10° 5° (N) 1,781 5.4 -7.7°
Maximum altitude 14:24:34 63° 86° (E) 605 2.7 -8.5°
Drops below altitude 10° 14:28:30 10° 166° (SSE) 1,805 5.3 -9.3°
Sets 14:30:41 0° 169° (S) 2,702 6.2 -9.8°
